[[{"header":{"parameterUnit":"m.s-1","parameterCategory":1,"la1":30.2991,"la2":30.254,"lo1":-89.0895,"lo2":-89.0444,"dy":0.0017,"dx":0.0017,"nx":28,"ny":28,"refTime":"2025-03-03T09:00:00:Z","depth":0,"parameterNumber":2,"parameterNumberName":"U-component_of_WINDS"},"data":[0,0,0,0,0,0,0,0,0,0,0,0,0,0,0,0,0,0,0,0,0,0,0,0,0,0,0,0,0,0,0,0,0,0,0,0,0,0,0,0,0,0,0,0,0,0,0,0,0,0,0,0,0,0,0,0,0,0,-4.8772,-4.8772,0,-4.8817,-4.8817,-4.8818,-4.8686,-4.8682,-4.8677,-4.8674,-4.8722,-4.8727,-4.8732,0,0,0,0,0,0,0,0,0,0,0,0,0,-4.8574,-4.8578,-4.8772,-4.8772,-4.8773,-4.8817,-4.8817,-4.8818,-4.8686,-4.8681,-4.8676,-4.8672,-4.872,-4.8726,-4.8732,0,0,0,0,0,0,0,0,0,0,0,0,0,-4.8643,-4.8579,-4.8772,-4.8712,-4.8708,-4.8817,-4.8817,-4.8818,-4.8687,-4.8681,-4.8675,-4.8669,-4.8718,-4.8725,-4.8733,-4.8902,0,0,-4.8756,-4.8759,0,0,0,0,0,0,0,0,-4.864,-4.8651,-4.8721,-4.8717,-4.8711,-4.8739,-4.8765,-4.8846,-4.8689,-4.8695,-4.8673,-4.8666,-4.8733,-4.8739,-4.876,-4.8904,-4.8906,-4.8757,-4.8761,-4.8765,-4.8767,0,0,0,0,0,0,0,-4.8635,-4.8648,-4.879,-4.8722,-4.8716,-4.8684,-4.8687,-4.878,-4.8748,-4.8694,-4.8685,-4.8692,-4.8729,-4.8753,-4.8761,-4.8907,-4.8757,-4.8763,-4.8768,-4.8771,-4.9193,-4.9199,0,0,0,0,0,0,-4.8638,-4.8645,-4.8788,-4.8791,-4.866,-4.8693,-4.8696,-4.8737,-4.8746,-4.8742,-4.8697,-4.8685,-4.8743,-4.8752,-4.8762,-4.8961,-4.8765,-4.8772,-4.8776,-4.9186,-4.9194,-4.9201,0,0,0,0,0,0,-4.8634,-4.8652,-4.8786,-4.8715,-4.873,-4.8703,-4.8749,-4.8741,-4.8765,-4.8748,-4.8742,-4.8728,-4.8739,-4.8751,-4.8868,-4.8961,-4.8775,-4.8782,-4.9178,-4.9189,-4.9198,-4.9361,0,0,0,0,0,0,-4.8629,-4.8651,-4.8714,-4.8718,-4.8734,-4.8892,-4.8755,-4.8746,-4.8778,-4.8764,-4.8776,-4.8772,-4.8735,-4.8858,-4.8876,-4.8968,-4.8788,-4.917,-4.9183,-4.9195,-4.9348,-4.9376,-4.94,0,0,0,0,0,-4.8622,-4.8759,-4.8718,-4.8736,-4.8813,-4.8897,-4.8907,-4.8862,-4.8786,-4.885,-4.884,-4.8771,-4.8948,-4.8871,-4.889,-4.8986,-4.9164,-4.9179,-4.9194,-4.9336,-4.937,-4.9399,0,0,0,0,0,0,-4.8767,-4.8758,-4.8713,-4.8855,-4.8878,-4.8875,-4.8954,-4.8899,-4.8944,-4.8929,-4.8871,-4.8875,-4.9003,-4.9006,-4.892,-4.9151,-4.9043,-4.9063,-4.9145,-4.9177,-4.9203,-4.92,-4.8794,0,0,0,0,0,-4.8816,-4.8885,-4.8873,-4.8999,-4.9013,-4.8982,-4.9017,-4.898,-4.9002,-4.9011,-4.9009,-4.9033,-4.9094,-4.9135,-4.919,-4.9347,-4.9349,-4.9423,-4.9449,-4.947,-4.9489,-4.9573,-4.9606,-4.9251,-4.925,-4.925,0,0,-4.8917,-4.892,-4.8967,-4.9029,-4.9042,-4.9115,-4.8991,-4.9074,-4.9128,-4.9024,-4.9134,-4.9134,-4.9157,-4.9295,-4.9356,-4.9302,-4.9587,-4.949,-4.9507,-4.9513,-4.9592,-4.9626,-4.9656,-4.9261,-4.9259,-4.9257,0,0,-4.9139,-4.9148,-4.9254,-4.9271,-4.9293,-4.9271,-4.9297,-4.9303,-4.9298,-4.9408,-4.9332,-4.9396,-4.9502,-4.9522,-4.9546,-4.9777,-4.9716,-4.9796,-4.9933,-5.0016,-5.0044,-5.0069,-5.0153,-5.0183,-4.9814,-4.9814,-4.9815,0,-4.9262,-4.9368,-4.9316,-4.9405,-4.9435,-4.9343,-4.9452,-4.947,-4.9509,-4.9532,-4.9471,-4.9602,-4.9611,-4.9754,-4.981,-4.9832,-4.9861,-4.9795,-5.0044,-5.0068,-5.0091,-5.017,-5.0201,-4.9824,-4.9823,-4.9822,-4.9821,0,-4.9519,-4.9595,-4.9678,-4.9719,-4.9758,-4.9856,-4.9819,-4.9865,-4.9825,-4.9811,-4.9925,-4.9933,-4.9988,-5.0019,-4.9981,-5.0157,-5.0122,-5.0054,-4.9944,-5.0135,-5.0209,-5.0238,-4.9838,-4.9834,-4.9832,-4.9829,0,0,-4.9834,-4.9845,-4.9876,-4.9894,-4.9912,-4.997,-5.0064,-5.0118,-5.0159,-5.0189,-5.0268,-5.036,-5.0297,-5.0324,-5.0288,-5.036,-5.0545,-5.0282,-5.0282,-5.0332,-5.0741,-5.0793,-5.0829,-5.0504,-5.051,-5.0514,-5.0739,0,-5.0054,-5.0215,-5.0171,-5.0333,-5.0402,-5.0317,-5.0399,-5.042,-5.0409,-5.0467,-5.0455,-5.0522,-5.0433,-5.0449,-5.0517,-5.0508,-5.0626,-5.0491,-5.0578,-5.0582,-5.0576,-5.0867,-5.0923,-5.1135,-5.0767,-5.0772,-5.0776,0,-5.0331,-5.0372,-5.0541,-5.0548,-5.0576,-5.0651,-5.0697,-5.0754,-5.0776,-5.0763,-5.0795,-5.0743,-5.0837,-5.0727,-5.0856,-5.0765,-5.0798,-5.0799,-5.0806,-5.0814,-5.0691,-5.0884,-5.1201,-5.1234,-5.082,-5.0816,-5.0813,0,-5.0546,-5.0643,-5.0757,-5.0774,-5.0786,-5.0841,-5.0848,-5.0863,-5.0899,-5.094,-5.0963,-5.1015,-5.1044,-5.1085,-5.105,-5.0972,-5.1186,-5.1072,-5.1179,-5.118,-5.1228,-5.1226,-5.1557,-5.1248,-5.1248,-5.1247,-5.1246,0,-5.0796,-5.0903,-5.0854,-5.0924,-5.1041,-5.099,-5.1108,-5.1106,-5.1121,-5.119,-5.1119,-5.1185,-5.1134,-5.1196,-5.1169,-5.1281,-5.1294,-5.1288,-5.1279,-5.1295,-5.1296,-5.1316,-5.1301,-5.1255,-5.1254,-5.1252,-5.125,0,-5.1056,-5.1027,-5.1145,-5.1146,-5.1149,-5.1236,-5.1237,-5.1303,-5.1286,-5.1375,-5.1393,-5.1368,-5.1438,-5.1406,-5.1479,-5.1461,-5.1606,-5.1578,-5.1599,-5.1592,-5.1701,-5.1692,-5.2058,-5.2104,-5.1765,-5.1768,-5.1771,0,-5.1218,-5.1298,-5.1308,-5.1349,-5.1361,-5.1428,-5.1464,-5.1417,-5.1458,-5.149,-5.1552,-5.1615,-5.1663,-5.1779,-5.1768,-5.1824,-5.1797,-5.1922,-5.1805,-5.1819,-5.1801,-5.1797,-5.1805,-5.1946,-5.195,-5.1953,-5.1955,0,-5.151,-5.1492,-5.1546,-5.1597,-5.1642,-5.1679,-5.1711,-5.1748,-5.1703,-5.1752,-5.1823,-5.186,-5.1935,-5.1999,-5.2049,-5.2057,-5.2,-5.1992,-5.202,-5.2037,-5.2047,-5.2044,-5.1664,-5.1984,-5.1981,-5.1979,-5.1977,-5.1976,-5.1726,-5.1794,-5.1812,-5.1876,-5.1894,-5.1926,-5.1987,-5.1979,-5.2037,-5.2094,-5.2063,-5.2145,-5.2166,-5.2226,-5.2243,-5.2307,-5.2258,-5.2298,-5.2309,-5.232,-5.2335,-5.2036,-5.2316,-5.2315,-5.2314,-5.2313,-5.2313,0,-5.2015,-5.2023,-5.2082,-5.2128,-5.2178,-5.2119,-5.2151,-5.2198,-5.2271,-5.2295,-5.2344,-5.2426,-5.2488,-5.2482,-5.254,-5.2593,-5.2568,-5.261,-5.2606,-5.2609,-5.2374,-5.2345,-5.2629,-5.2629,-5.2629,-5.2628,-5.2628,-5.2628,-5.2172,-5.2284,-5.2268,-5.2389,-5.2395,-5.2475,-5.2499,-5.2528,-5.2547,-5.2641,-5.2692,-5.2688,-5.2701,-5.2759,-5.2814,-5.2811,-5.2836,-5.2888,-5.2875,-5.2656,-5.2625,-5.2595,-5.2568,-5.2893,-5.2893,-5.3104,-5.3106,-5.3107]},{"header":{"parameterUnit":"m.s-1","parameterCategory":1,"la1":30.2991,"la2":30.254,"lo1":-89.0895,"lo2":-89.0444,"dy":0.0017,"dx":0.0017,"nx":28,"ny":28,"refTime":"2025-03-03T09:00:00:Z","depth":0,"parameterNumber":3,"parameterNumberName":"V-component_of_WINDS"},"data":[0,0,0,0,0,0,0,0,0,0,0,0,0,0,0,0,0,0,0,0,0,0,0,0,0,0,0,0,0,0,0,0,0,0,0,0,0,0,0,0,0,0,0,0,0,0,0,0,0,0,0,0,0,0,0,0,0,0,-0.6151,-0.6151,0,-0.6136,-0.6136,-0.6136,-0.6117,-0.6117,-0.6117,-0.6117,-0.6101,-0.6101,-0.6101,0,0,0,0,0,0,0,0,0,0,0,0,0,-0.6162,-0.6162,-0.6151,-0.6151,-0.6151,-0.6136,-0.6136,-0.6136,-0.6118,-0.6117,-0.6117,-0.6116,-0.6101,-0.6101,-0.6101,0,0,0,0,0,0,0,0,0,0,0,0,0,-0.6153,-0.6162,-0.6151,-0.614,-0.6139,-0.6136,-0.6136,-0.6136,-0.6118,-0.6117,-0.6117,-0.6116,-0.6101,-0.6101,-0.6101,-0.6108,0,0,-0.61,-0.61,0,0,0,0,0,0,0,0,-0.6154,-0.6153,-0.6142,-0.6141,-0.6139,-0.6128,-0.6134,-0.6127,-0.6118,-0.6126,-0.6117,-0.6116,-0.6111,-0.611,-0.6108,-0.6108,-0.6107,-0.61,-0.61,-0.61,-0.61,0,0,0,0,0,0,0,-0.6154,-0.6153,-0.6145,-0.6142,-0.614,-0.6135,-0.6133,-0.6133,-0.6121,-0.6125,-0.6124,-0.6122,-0.611,-0.6108,-0.6107,-0.6107,-0.61,-0.61,-0.61,-0.61,-0.611,-0.611,0,0,0,0,0,0,-0.6157,-0.6154,-0.6146,-0.6145,-0.6146,-0.6135,-0.6133,-0.6132,-0.6121,-0.6119,-0.6122,-0.6121,-0.6109,-0.6108,-0.6107,-0.6113,-0.61,-0.61,-0.61,-0.611,-0.611,-0.611,0,0,0,0,0,0,-0.6157,-0.6156,-0.6146,-0.6149,-0.6147,-0.6135,-0.6135,-0.6132,-0.613,-0.6119,-0.6116,-0.6123,-0.6108,-0.6107,-0.6108,-0.6113,-0.61,-0.61,-0.6109,-0.611,-0.611,-0.6128,0,0,0,0,0,0,-0.6158,-0.6157,-0.616,-0.6149,-0.6147,-0.6148,-0.6135,-0.6132,-0.613,-0.6128,-0.6119,-0.6117,-0.6108,-0.6108,-0.6107,-0.6112,-0.6099,-0.6109,-0.6109,-0.611,-0.6127,-0.6129,-0.6131,0,0,0,0,0,-0.6158,-0.6166,-0.616,-0.6159,-0.6151,-0.6149,-0.6147,-0.6137,-0.6131,-0.6133,-0.6125,-0.6117,-0.6112,-0.6108,-0.6107,-0.6112,-0.6108,-0.6109,-0.611,-0.6126,-0.6128,-0.6131,0,0,0,0,0,0,-0.6178,-0.6164,-0.6158,-0.6163,-0.6157,-0.6145,-0.6149,-0.6141,-0.6137,-0.6135,-0.6122,-0.612,-0.6122,-0.6117,-0.6113,-0.6118,-0.6109,-0.611,-0.6121,-0.6124,-0.6126,-0.6127,-0.6099,0,0,0,0,0,-0.6183,-0.6182,-0.617,-0.6175,-0.6173,-0.6161,-0.616,-0.6152,-0.6146,-0.6143,-0.6135,-0.6129,-0.6126,-0.6125,-0.6121,-0.6126,-0.6123,-0.6128,-0.613,-0.6132,-0.6133,-0.6133,-0.6135,-0.6113,-0.6113,-0.6113,0,0,-0.6193,-0.6185,-0.6186,-0.6179,-0.6174,-0.6172,-0.6159,-0.6159,-0.6158,-0.6143,-0.6143,-0.6137,-0.6129,-0.6131,-0.6132,-0.6127,-0.6138,-0.6133,-0.6135,-0.6134,-0.6134,-0.6136,-0.6138,-0.6114,-0.6114,-0.6114,0,0,-0.6211,-0.6205,-0.6208,-0.6203,-0.6194,-0.6186,-0.6187,-0.6176,-0.6172,-0.6171,-0.616,-0.6158,-0.6153,-0.6148,-0.6144,-0.6157,-0.6149,-0.6157,-0.6167,-0.6168,-0.617,-0.6171,-0.6175,-0.6176,-0.6157,-0.6157,-0.6157,0,-0.6224,-0.6222,-0.6211,-0.6211,-0.6207,-0.6193,-0.6195,-0.6191,-0.6182,-0.618,-0.6174,-0.6167,-0.6161,-0.6161,-0.6164,-0.6162,-0.6161,-0.6158,-0.617,-0.6172,-0.6173,-0.6176,-0.6178,-0.6158,-0.6158,-0.6158,-0.6158,0,-0.6239,-0.6238,-0.6241,-0.6232,-0.6229,-0.623,-0.6218,-0.6216,-0.6208,-0.6201,-0.6199,-0.6191,-0.6185,-0.6184,-0.6177,-0.6183,-0.618,-0.6173,-0.6163,-0.6176,-0.6179,-0.618,-0.616,-0.6159,-0.6159,-0.6159,0,0,-0.627,-0.6253,-0.6255,-0.625,-0.6238,-0.6237,-0.6237,-0.623,-0.6229,-0.6222,-0.6221,-0.6217,-0.6209,-0.6205,-0.6197,-0.6197,-0.6207,-0.619,-0.6189,-0.6193,-0.6211,-0.6216,-0.6218,-0.6201,-0.6201,-0.6201,-0.6211,0,-0.6285,-0.6284,-0.6273,-0.6275,-0.6272,-0.6258,-0.6257,-0.625,-0.6242,-0.6239,-0.623,-0.6227,-0.6218,-0.6215,-0.6215,-0.6206,-0.621,-0.6205,-0.6199,-0.6199,-0.6201,-0.622,-0.6226,-0.6236,-0.6213,-0.6213,-0.6213,0,-0.6303,-0.6297,-0.6299,-0.6286,-0.6285,-0.6285,-0.6277,-0.6274,-0.6265,-0.6259,-0.6254,-0.6244,-0.6241,-0.6233,-0.6229,-0.6225,-0.6222,-0.6217,-0.6217,-0.6216,-0.6207,-0.6219,-0.6239,-0.624,-0.6215,-0.6215,-0.6215,0,-0.6325,-0.6317,-0.6316,-0.6313,-0.6298,-0.6298,-0.6292,-0.6282,-0.6278,-0.6272,-0.6269,-0.6262,-0.6258,-0.6253,-0.6241,-0.6235,-0.6238,-0.6228,-0.6232,-0.6233,-0.6234,-0.6234,-0.6253,-0.6232,-0.6232,-0.6232,-0.6232,0,-0.6343,-0.6344,-0.6326,-0.6325,-0.6326,-0.6312,-0.6313,-0.6305,-0.6296,-0.6293,-0.628,-0.6278,-0.6263,-0.6258,-0.6249,-0.6247,-0.6245,-0.624,-0.6237,-0.6241,-0.6241,-0.6239,-0.6237,-0.6233,-0.6232,-0.6232,-0.6232,0,-0.6367,-0.6355,-0.6353,-0.6339,-0.6335,-0.6336,-0.6323,-0.6322,-0.6313,-0.6309,-0.6308,-0.6293,-0.6287,-0.6274,-0.6265,-0.6259,-0.6258,-0.6254,-0.6262,-0.626,-0.6264,-0.6264,-0.6282,-0.6284,-0.6262,-0.6263,-0.6263,0,-0.6379,-0.638,-0.6365,-0.6362,-0.6356,-0.6352,-0.6347,-0.6333,-0.6329,-0.6318,-0.6318,-0.631,-0.6304,-0.6295,-0.6283,-0.6276,-0.6271,-0.6278,-0.627,-0.6272,-0.627,-0.627,-0.6269,-0.6279,-0.628,-0.628,-0.628,0,-0.6402,-0.6395,-0.639,-0.6382,-0.6377,-0.637,-0.6362,-0.636,-0.6344,-0.634,-0.6334,-0.6329,-0.6318,-0.6311,-0.6301,-0.6294,-0.6284,-0.6283,-0.6283,-0.6287,-0.6291,-0.6288,-0.6266,-0.6282,-0.6282,-0.6282,-0.6282,-0.6282,-0.642,-0.6419,-0.6408,-0.6402,-0.6394,-0.6387,-0.6384,-0.6374,-0.6368,-0.6359,-0.6351,-0.6344,-0.6333,-0.6319,-0.6313,-0.6307,-0.6302,-0.6303,-0.6303,-0.6304,-0.6305,-0.6291,-0.6305,-0.6305,-0.6305,-0.6305,-0.6305,0,-0.6441,-0.6433,-0.6427,-0.6416,-0.6411,-0.6402,-0.6392,-0.6388,-0.6383,-0.6373,-0.6367,-0.6358,-0.635,-0.6338,-0.6329,-0.6327,-0.6322,-0.6325,-0.6325,-0.6323,-0.631,-0.631,-0.6329,-0.6329,-0.6329,-0.6329,-0.6329,-0.6329,-0.6452,-0.6449,-0.6441,-0.6434,-0.6426,-0.6419,-0.6414,-0.6407,-0.6399,-0.639,-0.6383,-0.6375,-0.6364,-0.6353,-0.6346,-0.6342,-0.6339,-0.6343,-0.6338,-0.6326,-0.6324,-0.6322,-0.6322,-0.6343,-0.6343,-0.6352,-0.6352,-0.6352]}]]